Regional Weather Roundup
Issued by NWS

Home | Current Version | Previous Version | Text Only | Print | Product List | Glossary On
Versions: 1 2 3 4 5 6 7 8 9 10 11 12 13 14 15 16 17 18 19 20 21 22 23 24 25 26 27 28 29 30 31 32 33 34 35 36 37 38 39 40 41 42 43 44 45 46 47 48 49 50
000
ASPQ40 PGUM 312310
RWRPQ
WEATHER ROUNDUP FOR THE MARIANAS AND MICRONESIA
NATIONAL WEATHER SERVICE TIYAN GU
900 AM CHST WED APR 01 2020

GUZ001>004-010000-
MARIANA ISLANDS-

CITY           SKY/WX    TMP DP  RH WIND       PRES   REMARKS
GUAM AIRPORT   MOSUNNY   84  72  65 E16G24    29.97S
ANDERSEN AFB   MOSUNNY   81  72  74 E16G23    29.98R
ROTA AIRPORT   MOSUNNY   81  73  78 E16       29.94S
TINIAN AP      MOSUNNY   82  72  69 E15       29.96R
SAIPAN AP      MOSUNNY   84  70  61 E20       29.97S

$$

PMZ161-010000-
REPUBLIC OF PALAU-

CITY           SKY/WX    TMP DP  RH WIND       PRES   REMARKS
KOROR AP       PTSUNNY   84  75  74 NE10G17   29.85R HX  92
KOROR WSO      NOT AVBL

$$

PMZ171>174-010000-
FEDERATED STATES OF MICRONESIA-

CITY           SKY/WX    TMP DP  RH WIND       PRES   REMARKS
YAP AIRPORT    NOT AVBL
CHUUK AP       MOSUNNY   86  77  74 NE14      29.84R HX  97
POHNPEI AP     CLOUDY    82  77  83 NE12      29.85R HX  91
POHNPEI WSO    NOT AVBL
KOSRAE AP      CLOUDY    84  77  79 E8        29.83  HX  94

$$

PMZ181-010000-
REPUBLIC OF THE MARSHALL ISLANDS-

CITY           SKY/WX    TMP DP  RH WIND       PRES   REMARKS
KWAJALEIN AP   MOSUNNY   84  73  70 NE21      29.86S HX  91
MAJURO AP      NOT AVBL
MAJURO WSO     PTSUNNY   84  77  79 E18       29.78F HX  94

$$




USA.gov is the U.S. government's official web portal to all federal, state and local government web resources and services.